Hourly Data Report for April 20, 2019

CLYDE RIVER A
NUNAVUT
Current Station Operator: NAVCAN

70°29'09.000" N
68°31'01.000" W
26.50 m
2400804
71090
YCY

Download Data

Hourly Data (April 2019)
Hourly Data Report for April 20, 2019
TIME
LST
Temp Definition
°C
Dew Point Definition
°C
Rel Hum Definition
%
Precip. Amount Definition
mm

Wind Dir Definition
10's deg

Wind Spd Definition
km/h
Visibility Definition
km
Stn Press Definition
kPa
Hmdx Definition


Wind Chill Definition


Weather Definition


00:00 -20.1 -22.3 83 0.0 31 17 8.1 100.28   -30 Snow
01:00 -20.1 -22.2 84 0.0 31 18 4.8 100.26   -30 Snow
02:00 -20.1 -22.2 84 0.0 32 18 9.7 100.25   -30 Snow
03:00 -20.5 -22.7 83 0.0 31 21 14.5 100.25   -31 Snow
04:00 -20.4 -22.7 82 0.1 30 22 6.4 100.24   -31 Snow
05:00 -20.2 -22.4 83 0.1 31 26 12.9 100.22   -32 Snow
06:00 -19.9 -22.2 82 0.0 30 24 6.4 100.22   -31 Snow
07:00 -19.7 -22.2 81 0.0 32 28 4.8 100.19   -32 Snow
08:00 -19.5 -22.0 81 0.0 30 30 12.9 100.18   -32 Snow
09:00 -19.0 -21.7 80 0.0 31 28 6.4 100.18   -31 Snow
10:00 -19.0 -21.6 81 0.0 32 34 8.1 100.16   -32 Snow
11:00 -18.4 -21.1 80 0.0 31 34 6.4 100.15   -31 Snow
12:00 -18.2 -21.0 79 0.0 32 34 12.9 100.16   -31 LegendNANA
13:00 -18.3 -21.1 79 0.0 32 37 8.1 100.17   -31 Haze
14:00 -17.9 -20.7 79 0.0 32 37 6.4 100.17   -31 Haze
15:00 -18.1 -20.6 81 0.0 32 35 6.4 100.19   -31 Fog
16:00 -19.0 -21.4 82 0.0 32 34 12.9 100.18   -32 LegendNANA
17:00 -18.8 -21.2 82 0.0 32 34 8.1 100.20   -32 Fog
18:00 -19.0 -21.2 83 0.0 32 32 12.9 100.21   -32 LegendNANA
19:00 -19.3 -21.5 83 0.0 32 34 16.1 100.24   -32 LegendNANA
20:00 -19.5 -21.7 83 0.0 32 30 16.1 100.25   -32 Snow
21:00 -19.4 -21.6 83 0.0 32 30 4.8 100.23   -32 Snow
22:00 -19.2 -21.4 83 0.0 32 28 9.7 100.23   -31 Snow
23:00 -19.1 -21.4 82 0.0 31 26 6.4 100.21   -31 Snow

Notes on Data Quality.

Legend

  • E = Estimated
  • M = Missing
  • NA = Not Available*
  • [empty] = Indicates an unobserved value
Date modified: